1516618800.33,17503,3.94,72316.5,-5.65,-43.21,-43.61,0,*52
1516618801.59,17504,3.94,72312.5,-5.65,-42.75,-42.83,0,*58
1516618802.82,17505,3.94,72312.5,-5.67,-43.15,-43.55,0,*56
1516618804.06,17506,3.88,72310.0,-5.65,-43.41,-43.95,0,*5A
1516618805.34,17507,3.94,72318.8,-5.65,-44.01,-44.21,0,*50
1516618806.6,17508,3.94,72314.0,-5.65,-43.15,-43.55,0,*59
1516618807.86,17509,3.94,72316.5,-5.65,-43.15,-43.55,0,*58
1516618809.14,17510,3.94,72312.0,-5.65,-43.21,-43.55,0,*57
1516618810.37,17511,3.94,72312.5,-5.67,-43.21,-43.61,0,*53
1516618811.63,17512,3.94,72314.5,-5.65,-43.75,-44.01,0,*52
1516618812.9,17513,3.94,72312.3,-5.65,-43.55,-43.81,0,*5E
1516618814.18,17514,3.94,72314.3,-5.65,-43.55,-43.81,0,*59
1516618815.45,17515,3.94,72314.3,-5.65,-43.55,-43.81,0,*58
1516618816.67,17516,3.94,72312.3,-5.67,-43.75,-43.95,0,*5E
1516618817.87,17517,3.94,72314.5,-5.67,-43.15,-43.41,0,*50
1516618819.13,17518,3.94,72310.3,-5.65,-43.15,-43.55,0,*58
1516618820.37,17519,3.94,72314.0,-5.65,-43.01,-43.41,0,*59
1516618821.63,17520,3.94,72314.0,-5.65,-43.41,-43.81,0,*5B
1516618822.88,17521,3.94,72312.8,-5.67,-43.55,-43.81,0,*5D
1516618824.13,17522,3.94,72314.8,-5.65,-43.15,-43.55,0,*51
1516618825.37,17523,3.94,72314.3,-5.65,-43.41,-43.75,0,*53
1516618826.65,17524,3.94,72314.5,-5.65,-43.81,-44.01,0,*5C
1516618827.9,17525,3.94,72312.0,-5.65,-43.95,-44.47,0,*5A
1516618829.14,17526,3.94,72314.3,-5.67,-45.27,-45.53,0,*50
1516618830.37,17527,3.94,72314.0,-5.67,-44.47,-44.79,0,*5F
1516618831.6,17528,3.94,72312.8,-5.67,-43.95,-44.21,0,*55
1516618832.81,17529,3.94,72312.3,-5.71,-43.87,-44.07,0,*54
1516618834.08,17530,3.94,72314.8,-5.69,-44.87,-45.27,0,*51
1516618835.34,17531,3.94,72312.8,-5.71,-45.07,-45.47,0,*56
1516618836.6,17532,3.94,72316.5,-5.71,-43.81,-44.21,0,*5C
1516618837.81,17533,3.94,72314.0,-5.71,-44.07,-44.27,0,*52
1516618839.05,17534,3.94,72312.0,-5.71,-43.49,-43.81,0,*53
1516618840.28,17535,3.94,72316.8,-5.71,-42.89,-43.21,0,*55
1516618841.52,17536,3.94,72318.3,-5.69,-43.41,-43.61,0,*5E
1516618842.75,17537,3.94,72310.3,-5.71,-43.87,-44.21,0,*5F
1516618843.99,17538,3.94,72314.8,-5.73,-43.15,-43.35,0,*5B
1516618845.24,17539,3.94,72314.5,-5.73,-43.35,-43.55,0,*5E
1516618846.49,17540,3.94,72316.5,-5.71,-43.09,-43.41,0,*58
1516618847.75,17541,3.94,72312.3,-5.71,-43.81,-44.01,0,*5A
1516618848.95,17542,3.94,72316.3,-5.71,-43.87,-44.27,0,*5B
1516618850.19,17543,3.94,72314.0,-5.71,-45.53,-45.73,0,*55
1516618851.45,17544,3.94,72314.5,-5.73,-44.33,-44.61,0,*55
1516618852.66,17545,3.94,72310.5,-5.75,-43.49,-43.75,0,*5A
1516618853.89,17546,3.94,72312.5,-5.73,-44.07,-44.27,0,*52
1516618855.1,17547,3.94,72308.0,-5.75,-43.95,-44.27,0,*59
1516618856.33,17548,3.94,72308.8,-5.75,-44.73,-44.99,0,*5C
1516618857.6,17549,3.94,72310.5,-5.75,-44.73,-44.93,0,*57
1516618858.86,17550,3.94,72308.5,-5.73,-43.09,-43.35,0,*58
1516618860.1,17551,3.94,72310.5,-5.75,-43.29,-43.49,0,*56
1516618861.36,17552,3.94,72310.5,-5.73,-42.69,-42.89,0,*5B
1516618862.61,17553,3.94,72314.3,-5.73,-42.51,-42.83,0,*5B
1516618863.87,17554,3.94,72310.0,-5.73,-42.89,-42.95,0,*5E
1516618865.1,17555,3.94,72314.0,-5.73,-43.15,-43.49,0,*5B
1516618866.37,17556,3.94,72314.5,-5.73,-43.49,-43.67,0,*5D
1516618867.6,17557,3.94,72312.3,-5.73,-43.15,-43.49,0,*59
1516618868.86,17558,3.94,72310.5,-5.73,-42.45,-42.63,0,*5B
1516618870.15,17559,3.94,72312.5,-5.69,-42.19,-42.31,0,*5F
1516618871.41,17560,3.88,72310.3,-5.69,-41.93,-41.99,0,*55
1516618872.67,17561,3.94,72308.0,-5.69,-41.93,-42.13,0,*55
1516618873.89,17562,3.94,72310.0,-5.67,-41.93,-42.13,0,*58
1516618875.15,17563,3.94,72312.3,-5.67,-42.69,-42.83,0,*56
1516618876.38,17564,3.94,72312.3,-5.67,-42.37,-42.57,0,*53
1516618877.63,17565,3.94,72310.8,-5.67,-42.19,-42.57,0,*5E
1516618878.89,17566,3.94,72312.0,-5.65,-42.69,-42.75,0,*58
1516618880.16,17567,3.94,72314.0,-5.65,-42.95,-43.15,0,*5D
1516618881.4,17568,3.94,72314.5,-5.63,-42.95,-43.15,0,*54
1516618882.61,17569,3.94,72312.3,-5.63,-42.63,-42.75,0,*5B
1516618883.88,17570,3.94,72312.3,-5.61,-42.63,-42.95,0,*5F
1516618885.11,17571,3.94,72312.0,-5.63,-42.63,-42.69,0,*5F
1516618886.35,17572,3.94,72314.8,-5.63,-42.45,-42.63,0,*52
1516618887.56,17573,3.94,72312.5,-5.63,-42.63,-42.75,0,*50
1516618888.83,17574,3.94,72312.0,-5.61,-42.75,-42.69,0,*5F
1516618890.09,17575,3.94,72312.5,-5.61,-42.89,-43.09,0,*5A
1516618891.35,17576,3.94,72314.3,-5.61,-42.69,-42.75,0,*5D
1516618892.62,17577,3.94,72314.8,-5.57,-42.45,-42.63,0,*50
1516618893.83,17578,3.94,72312.0,-5.55,-42.51,-42.63,0,*58
1516618895.04,17579,3.94,72314.8,-5.55,-42.51,-42.63,0,*59
1516618896.26,17580,3.94,72312.8,-5.55,-43.01,-43.35,0,*59
1516618897.47,17581,3.94,72312.0,-5.55,-42.51,-42.63,0,*5E
1516618898.7,17582,3.94,72316.5,-5.57,-42.63,-42.89,0,*5A
1516618899.94,17583,3.94,72314.0,-5.53,-42.75,-43.15,0,*5C
1516618901.18,17584,3.94,72312.8,-5.55,-42.95,-43.41,0,*52
1516618902.44,17585,3.94,72314.5,-5.55,-42.83,-43.21,0,*52
1516618903.67,17586,3.94,72312.5,-5.55,-43.01,-43.21,0,*5A
1516618904.88,17587,3.94,72308.3,-5.55,-42.13,-42.37,0,*5F
1516618906.14,17588,3.94,72312.0,-5.53,-42.31,-42.51,0,*56
1516618907.38,17589,3.94,72314.5,-5.51,-43.15,-43.55,0,*57
1516618908.61,17590,3.94,72312.8,-5.53,-43.95,-44.07,0,*55
1516618909.85,17591,3.94,72312.5,-5.51,-43.29,-43.75,0,*53
1516618911.11,17592,3.94,72314.3,-5.53,-42.83,-43.15,0,*55
1516618912.35,17593,3.94,72314.5,-5.51,-42.63,-42.95,0,*51
1516618913.58,17594,3.94,72312.0,-5.51,-42.89,-43.29,0,*54
1516618914.79,17595,3.94,72314.8,-5.51,-43.87,-43.95,0,*5D
1516618916.02,17596,3.94,72310.8,-5.51,-42.75,-43.09,0,*57
1516618917.29,17597,3.94,72312.8,-5.51,-42.95,-43.29,0,*5A
1516618918.55,17598,3.94,72312.8,-5.51,-43.09,-43.29,0,*51
1516618919.8,17599,3.94,72310.5,-5.51,-42.57,-42.57,0,*52
1516618921.08,17600,3.94,72314.5,-5.53,-43.81,-44.33,0,*5D
1516618922.32,17601,3.94,72312.5,-5.51,-43.67,-43.95,0,*5D
1516618923.59,17602,3.94,72314.0,-5.53,-42.95,-43.15,0,*58
1516618924.84,17603,3.94,72314.0,-5.51,-42.31,-42.45,0,*51
1516618926.11,17604,3.94,72312.8,-5.49,-42.13,-42.31,0,*5C
1516618927.37,17605,3.94,72312.3,-5.49,-42.13,-42.45,0,*5E
1516618928.64,17606,3.94,72316.0,-5.45,-43.09,-43.41,0,*5E
1516618929.92,17607,3.94,72312.8,-5.49,-43.09,-43.29,0,*5D
1516618931.19,17608,3.94,72312.3,-5.45,-44.53,-44.93,0,*50
1516618932.47,17609,3.94,72310.5,-5.49,-44.13,-44.33,0,*53
1516618933.73,17610,3.94,72314.0,-5.49,-43.75,-44.01,0,*5D
1516618934.99,17611,3.94,72312.0,-5.49,-43.95,-44.21,0,*50
1516618936.24,17612,3.94,72312.5,-5.45,-44.07,-44.47,0,*53
1516618937.46,17613,3.94,72312.0,-5.51,-44.79,-44.99,0,*5D
1516618938.69,17614,3.94,72314.3,-5.53,-44.07,-44.41,0,*54
1516618939.95,17615,3.94,72314.5,-5.53,-43.35,-43.55,0,*51
1516618941.19,17616,3.94,72314.8,-5.53,-43.15,-43.41,0,*55
1516618942.45,17617,3.94,72312.8,-5.53,-42.75,-42.83,0,*5C
1516618943.71,17618,3.94,72312.8,-5.53,-43.75,-43.81,0,*51
1516618944.94,17619,3.94,72314.8,-5.51,-43.67,-43.75,0,*5A
1516618946.18,17620,3.94,72314.8,-5.53,-44.07,-44.41,0,*53
1516618947.42,17621,3.94,72312.0,-5.53,-43.41,-43.75,0,*57
1516618948.65,17622,3.94,72312.5,-5.51,-42.45,-42.51,0,*54
1516618949.89,17623,3.94,72308.5,-5.51,-43.09,-43.35,0,*5F
1516618951.16,17624,3.94,72312.0,-5.53,-42.31,-42.51,0,*53
1516618952.43,17625,3.94,72312.5,-5.49,-41.93,-41.93,0,*5F
1516618953.67,17626,3.94,72310.3,-5.51,-42.05,-42.25,0,*57
1516618954.9,17627,3.94,72310.0,-5.49,-41.73,-41.87,0,*56
1516618956.14,17628,3.94,72308.5,-5.45,-41.49,-41.41,0,*56
1516618957.37,17629,3.94,72312.3,-5.45,-41.61,-41.61,0,*5F
1516618958.64,17630,3.94,72312.5,-5.43,-41.23,-41.23,0,*51
1516618959.9,17631,3.94,72312.8,-5.43,-41.55,-41.35,0,*56
1516618961.14,17632,3.94,72314.5,-5.43,-41.35,-41.41,0,*50
1516618962.43,17633,3.94,72314.8,-5.41,-41.23,-41.23,0,*50
1516618963.64,17634,3.94,72314.3,-5.39,-41.73,-42.13,0,*5D
1516618964.85,17635,3.94,72314.8,-5.39,-42.51,-42.75,0,*5F
1516618966.08,17636,3.94,72312.3,-5.39,-42.69,-42.89,0,*54
1516618967.28,17637,3.94,72312.5,-5.35,-42.63,-43.01,0,*52
1516618968.51,17638,3.94,72314.3,-5.35,-42.89,-43.21,0,*5B
1516618969.72,17639,3.94,72314.8,-5.35,-42.51,-42.63,0,*58
1516618970.95,17640,3.94,72312.0,-5.35,-41.67,-41.99,0,*56
1516618972.22,17641,3.94,72310.3,-5.35,-41.67,-41.67,0,*56
1516618973.42,17642,3.94,72314.5,-5.35,-41.41,-41.61,0,*57
1516618974.68,17643,3.94,72312.0,-5.33,-41.23,-41.11,0,*53
1516618975.92,17644,3.94,72314.8,-5.33,-41.03,-41.03,0,*55
1516618977.18,17645,3.94,72312.5,-5.31,-41.55,-41.61,0,*51
1516618978.43,17646,3.94,72312.5,-5.29,-40.79,-40.91,0,*5A
1516618979.68,17647,3.94,72312.8,-5.29,-41.81,-41.93,0,*5E
1516618980.95,17648,3.94,72312.0,-5.27,-41.55,-41.87,0,*53
1516618982.21,17649,3.94,72312.3,-5.25,-41.55,-41.67,0,*5E
1516618983.5,17650,3.94,72310.0,-5.27,-41.67,-41.93,0,*5E
1516618984.73,17651,3.94,72310.5,-5.27,-41.49,-41.73,0,*5D
1516618985.96,17652,3.94,72310.0,-5.25,-42.05,-42.13,0,*52
1516618987.2,17653,3.94,72314.0,-5.25,-42.31,-42.37,0,*52
1516618988.41,17654,3.94,72312.5,-5.21,-41.03,-41.11,0,*54
1516618989.64,17655,3.94,72310.5,-5.19,-41.29,-41.29,0,*5D
1516618990.88,17656,3.94,72314.3,-5.19,-41.87,-41.87,0,*5E
1516618992.15,17657,3.94,72312.5,-5.19,-42.25,-42.31,0,*5A
1516618993.39,17658,3.94,72312.0,-5.19,-41.87,-41.87,0,*50
1516618994.62,17659,3.94,72312.8,-5.19,-41.87,-41.99,0,*5E
1516618995.9,17660,3.94,72314.8,-5.19,-40.79,-40.79,0,*5B
1516618997.11,17661,3.94,72310.8,-5.17,-41.17,-41.41,0,*57
1516618998.34,17662,3.94,72312.3,-5.17,-41.99,-42.19,0,*5C
1516618999.55,17663,3.94,72314.0,-5.13,-41.11,-41.11,0,*52
1516619000.82,17664,3.94,72318.8,-5.11,-40.79,-40.79,0,*57
1516619002.05,17665,3.94,72312.3,-5.11,-41.17,-41.29,0,*5B
1516619003.27,17666,3.94,72312.0,-5.09,-41.03,-41.11,0,*5F
1516619004.47,17667,3.94,72314.3,-5.09,-41.41,-41.49,0,*55
1516619005.75,17668,3.94,72314.5,-5.07,-42.05,-42.19,0,*51
1516619006.99,17669,3.94,72314.3,-5.09,-41.23,-41.41,0,*57
1516619008.28,17670,3.94,72314.3,-5.07,-41.35,-41.55,0,*53
1516619009.52,17671,3.94,72312.0,-5.05,-41.81,-41.87,0,*50
1516619010.79,17672,3.94,72312.0,-5.07,-42.05,-42.45,0,*53
1516619012.08,17673,3.94,72314.0,-5.07,-42.95,-43.21,0,*58
1516619013.31,17674,3.94,72314.3,-5.07,-43.41,-43.61,0,*53
1516619014.59,17675,3.94,72318.0,-5.07,-43.67,-44.21,0,*55
1516619015.85,17676,3.94,72312.8,-5.07,-43.29,-43.61,0,*5F
1516619017.14,17677,3.94,72314.5,-5.07,-42.95,-43.21,0,*5C
1516619018.37,17678,3.94,72312.3,-5.09,-43.01,-43.29,0,*59
1516619019.58,17679,3.94,72314.3,-5.09,-42.63,-43.01,0,*57
1516619020.81,17680,3.94,72314.0,-5.11,-43.35,-43.75,0,*59
1516619022.04,17681,3.94,72316.5,-5.09,-42.89,-43.21,0,*56
1516619023.28,17682,3.94,72314.8,-5.09,-41.67,-41.87,0,*58
1516619024.48,17683,3.94,72316.3,-5.09,-41.61,-41.61,0,*57
1516619025.74,17684,3.94,72314.8,-5.09,-42.45,-42.69,0,*5E
1516619026.97,17685,3.94,72314.0,-5.09,-42.63,-43.09,0,*5C
1516619028.23,17686,3.94,72312.0,-5.09,-42.31,-42.69,0,*5F
1516619029.46,17687,3.94,72314.5,-5.09,-42.13,-42.45,0,*50
1516619030.72,17688,3.94,72314.5,-5.09,-41.81,-41.93,0,*5F
1516619031.95,17689,3.94,72312.5,-5.05,-41.55,-41.61,0,*56
1516619033.17,17690,3.94,72314.5,-5.05,-41.87,-41.87,0,*59
1516619034.43,17691,3.94,72316.5,-5.05,-42.19,-42.45,0,*51
1516619035.64,17692,3.94,72312.0,-5.05,-41.87,-41.87,0,*5B
1516619036.9,17693,3.94,72318.3,-5.03,-41.99,-42.19,0,*57
1516619038.13,17694,3.94,72314.3,-5.03,-42.13,-42.51,0,*5D
1516619039.39,17695,3.94,72314.0,-5.01,-41.93,-42.31,0,*53
1516619040.66,17696,3.94,72314.8,-5.03,-42.19,-42.51,0,*55
1516619041.88,17697,3.94,72316.0,-5.03,-41.73,-42.13,0,*5D
1516619043.11,17698,3.94,72314.3,-5.03,-42.37,-42.89,0,*52
1516619044.37,17699,3.94,72314.0,-5.01,-42.57,-42.95,0,*5A
1516619045.57,17700,3.94,72316.0,-5.01,-43.35,-43.75,0,*51
1516619046.77,17701,3.94,72316.5,-5.01,-43.15,-43.41,0,*55
1516619048.03,17702,3.94,72312.3,-5.03,-42.57,-42.75,0,*55
1516619049.29,17703,3.94,72314.8,-5.03,-42.57,-42.75,0,*54
1516619050.55,17704,3.94,72316.3,-5.03,-42.19,-42.51,0,*5F
1516619051.81,17705,3.94,72312.3,-5.01,-42.69,-42.95,0,*53
1516619053.06,17706,3.94,72316.3,-5.03,-42.57,-42.89,0,*52
1516619054.29,17707,3.94,72314.5,-5.01,-42.19,-42.37,0,*5E
1516619055.54,17708,3.94,72314.5,-5.01,-41.67,-41.81,0,*55
1516619056.78,17709,3.94,72312.3,-5.01,-41.17,-41.35,0,*5C
1516619058.0,17710,3.94,72314.5,-5.01,-40.97,-41.17,0,*5D
1516619059.29,17711,3.94,72312.0,-4.93,-41.81,-42.05,0,*50
1516619060.52,17712,3.94,72314.8,-4.95,-42.89,-43.29,0,*51
1516619061.75,17713,3.94,72314.8,-4.95,-43.01,-43.29,0,*51
1516619063.03,17714,3.94,72312.0,-4.93,-41.81,-42.05,0,*55
1516619064.27,17715,3.94,72314.8,-4.93,-41.87,-42.25,0,*50
1516619065.5,17716,3.94,72314.0,-4.95,-42.05,-42.51,0,*5F
1516619066.79,17717,3.94,72314.3,-4.93,-42.19,-42.45,0,*50
1516619068.05,17718,3.94,72312.8,-4.93,-42.45,-42.63,0,*52
1516619069.29,17719,3.94,72312.8,-4.93,-42.25,-42.63,0,*55
1516619070.53,17720,3.94,72310.0,-4.91,-43.01,-43.29,0,*55
1516619071.78,17721,3.94,72312.8,-4.93,-43.41,-43.81,0,*50
1516619073.05,17722,3.94,72312.5,-4.93,-43.09,-43.49,0,*5B
1516619074.31,17723,3.94,72312.5,-4.97,-42.51,-42.83,0,*55
1516619075.54,17724,3.94,72312.3,-4.95,-43.09,-43.35,0,*50
1516619076.77,17725,3.94,72316.0,-4.95,-43.15,-43.55,0,*5A
1516619078.0,17726,3.94,72314.8,-4.95,-42.25,-42.45,0,*5B
1516619079.21,17727,3.94,72314.8,-4.95,-42.13,-42.51,0,*5A
1516619080.44,17728,3.94,72312.0,-4.95,-41.93,-42.25,0,*5D
1516619081.71,17729,3.94,72312.3,-4.93,-41.87,-42.19,0,*50
1516619082.94,17730,3.94,72318.5,-4.91,-42.63,-42.95,0,*57
1516619084.2,17731,3.94,72314.5,-4.91,-42.45,-42.83,0,*55
1516619085.45,17732,3.94,72314.0,-4.93,-42.83,-43.01,0,*55
1516619086.71,17733,3.94,72314.3,-4.93,-43.21,-43.49,0,*51
1516619087.95,17734,3.94,72312.5,-4.91,-41.87,-42.19,0,*5E
1516619089.21,17735,3.94,72312.0,-4.93,-43.09,-43.61,0,*57
1516619090.44,17736,3.94,72312.0,-4.93,-43.41,-43.87,0,*50
1516619091.68,17737,3.94,72316.3,-4.91,-42.63,-42.95,0,*50
1516619092.91,17738,3.94,72312.5,-4.91,-41.81,-41.99,0,*5F
1516619094.15,17739,3.94,72314.0,-4.91,-41.81,-42.25,0,*5A
1516619095.4,17740,3.94,72312.0,-4.91,-42.19,-42.57,0,*53
1516619096.64,17741,3.94,72312.8,-4.91,-42.19,-42.75,0,*52
1516619097.91,17742,3.94,72316.3,-4.93,-43.21,-43.41,0,*5F
1516619099.14,17743,3.94,72316.3,-4.91,-43.49,-44.01,0,*51
1516619100.39,17744,3.94,72316.5,-4.93,-42.83,-43.01,0,*54
1516619101.65,17745,3.94,72312.3,-4.91,-42.95,-43.21,0,*52
1516619102.94,17746,3.94,72316.5,-4.93,-43.81,-44.21,0,*50
1516619104.2,17747,3.94,72314.8,-4.91,-42.95,-43.29,0,*58
1516619105.46,17748,3.94,72316.5,-4.93,-41.81,-41.99,0,*5A
1516619106.67,17749,3.94,72312.0,-4.91,-41.61,-41.87,0,*58
1516619107.9,17750,3.94,72314.3,-4.91,-41.17,-41.55,0,*5E
1516619109.14,17751,3.94,72312.8,-4.87,-41.35,-41.49,0,*55
1516619110.34,17752,3.94,72314.0,-4.87,-41.17,-41.49,0,*56
1516619111.57,17753,3.94,72314.0,-4.87,-41.81,-41.99,0,*55
1516619112.83,17754,3.94,72314.3,-4.87,-41.93,-42.19,0,*5A
1516619114.09,17755,3.94,72316.0,-4.85,-42.05,-42.25,0,*5A
1516619115.33,17756,3.94,72312.8,-4.85,-42.13,-42.51,0,*5D
1516619116.61,17757,3.94,72312.8,-4.85,-41.67,-41.93,0,*51
1516619117.89,17758,3.94,72314.5,-4.85,-42.05,-42.45,0,*51
1516619119.12,17759,3.94,72314.8,-4.83,-42.51,-42.83,0,*5D
1516619120.36,17760,3.94,72316.3,-4.85,-42.13,-42.51,0,*58
1516619121.57,17761,3.94,72314.0,-4.83,-42.25,-42.63,0,*5B
1516619122.8,17762,3.94,72314.5,-4.83,-42.45,-42.89,0,*5A
1516619124.06,17763,3.94,72318.0,-4.85,-42.25,-42.69,0,*55
1516619125.3,17764,3.94,72318.0,-4.83,-41.87,-42.31,0,*52
1516619126.54,17765,3.94,72318.3,-4.83,-41.87,-42.31,0,*53
1516619127.77,17766,3.94,72314.8,-4.81,-42.63,-43.01,0,*59
1516619128.98,17767,3.94,72314.5,-4.79,-41.87,-42.25,0,*51
1516619130.26,17768,3.94,72316.0,-4.81,-41.67,-42.19,0,*58
1516619131.49,17769,3.94,72316.5,-4.81,-41.99,-42.37,0,*54
1516619132.77,17770,3.94,72314.3,-4.81,-42.45,-42.83,0,*51
1516619134.02,17771,3.94,72314.3,-4.79,-42.83,-43.21,0,*54
1516619135.28,17772,3.94,72318.8,-4.81,-43.41,-43.67,0,*5D
1516619136.54,17773,3.94,72318.5,-4.81,-43.21,-43.61,0,*5C
1516619137.79,17774,3.94,72312.0,-4.81,-43.21,-43.61,0,*5B
1516619139.05,17775,3.94,72316.3,-4.81,-43.09,-43.49,0,*5A
1516619140.29,17776,3.94,72318.5,-4.81,-43.61,-43.87,0,*55
1516619141.54,17777,3.94,72316.3,-4.83,-43.67,-44.21,0,*5B
1516619142.78,17778,3.94,72314.3,-4.83,-43.95,-44.21,0,*59
1516619144.04,17779,3.94,72316.0,-4.85,-43.55,-43.95,0,*5A
1516619145.27,17780,3.94,72318.8,-4.85,-43.87,-44.07,0,*5F
1516619146.55,17781,3.94,72318.5,-4.85,-43.67,-44.13,0,*55
1516619147.78,17782,3.94,72316.8,-4.87,-43.21,-43.61,0,*54
1516619149.02,17783,3.94,72314.0,-4.85,-43.49,-43.49,0,*53
1516619150.25,17784,3.94,72318.8,-4.85,-43.49,-43.95,0,*55
1516619151.51,17785,3.94,72316.3,-4.85,-43.55,-43.75,0,*57
1516619152.78,17786,3.94,72312.8,-4.89,-42.95,-43.15,0,*53
1516619153.98,17787,3.94,72316.5,-4.87,-42.89,-43.01,0,*54
1516619155.19,17788,3.94,72318.3,-4.87,-43.15,-43.35,0,*58
1516619156.43,17789,3.94,72314.8,-4.89,-42.75,-42.89,0,*56
1516619157.65,17790,3.94,72316.5,-4.87,-42.57,-42.89,0,*50
1516619158.87,17791,3.94,72312.8,-4.87,-42.51,-42.75,0,*54
1516619160.1,17792,3.94,72316.3,-4.87,-42.69,-42.89,0,*5F
1516619161.38,17793,3.94,72314.0,-4.85,-42.95,-43.29,0,*54
1516619162.65,17794,3.94,72314.8,-4.85,-42.95,-43.15,0,*5C
1516619163.91,17795,3.94,72314.3,-4.85,-42.31,-42.63,0,*53
1516619165.17,17796,3.94,72316.8,-4.85,-42.13,-42.45,0,*54
1516619166.41,17797,3.94,72318.5,-4.85,-42.25,-42.51,0,*55
1516619167.67,17798,3.94,72318.5,-4.85,-42.31,-42.51,0,*5F
1516619168.92,17799,3.94,72318.5,-4.85,-42.25,-42.63,0,*5A
1516619170.18,17800,3.94,72318.0,-4.83,-41.55,-41.55,0,*51
1516619171.4,17801,3.94,72316.8,-4.83,-41.73,-42.05,0,*52
1516619172.64,17802,3.94,72316.5,-4.83,-42.89,-42.95,0,*5E
1516619173.9,17803,3.94,72318.8,-4.83,-43.09,-43.29,0,*50
1516619175.17,17804,3.94,72320.8,-4.83,-42.95,-42.95,0,*55
1516619176.37,17805,3.94,72318.0,-4.83,-42.63,-42.89,0,*50
1516619177.66,17806,3.94,72316.5,-4.85,-43.09,-43.55,0,*58
1516619178.92,17807,3.94,72318.0,-4.85,-42.69,-42.89,0,*5E
1516619180.15,17808,3.94,72318.0,-4.83,-42.63,-42.83,0,*57
1516619181.4,17809,3.94,72318.5,-4.85,-42.51,-42.83,0,*51
1516619182.67,17810,3.94,72318.5,-4.85,-42.95,-43.15,0,*5F
1516619183.95,17811,3.94,72316.8,-4.85,-42.05,-42.45,0,*53
1516619185.16,17812,3.94,72316.5,-4.83,-42.25,-42.63,0,*50
1516619186.45,17813,3.94,72322.3,-4.85,-42.83,-42.95,0,*52
1516619187.71,17814,3.94,72318.3,-4.83,-42.45,-42.69,0,*5A
1516619188.92,17815,3.94,72320.8,-4.83,-42.25,-42.51,0,*56
1516619190.16,17816,3.94,72318.5,-4.83,-41.67,-41.87,0,*58
1516619191.42,17817,3.94,72318.8,-4.83,-41.93,-42.31,0,*5C
1516619192.67,17818,3.94,72318.3,-4.83,-42.45,-42.69,0,*56
1516619193.94,17819,3.94,72320.5,-4.85,-42.31,-42.51,0,*59
1516619195.2,17820,3.94,72316.3,-4.83,-41.93,-42.31,0,*58
1516619196.43,17821,3.94,72316.3,-4.83,-42.51,-42.69,0,*59
1516619197.64,17822,3.94,72318.0,-4.83,-42.25,-42.51,0,*52
1516619198.88,17823,3.94,72318.5,-4.79,-42.45,-42.63,0,*51
1516619200.13,17824,3.94,72318.5,-4.81,-42.37,-42.57,0,*53
1516619201.39,17825,3.94,72316.0,-4.81,-42.25,-42.45,0,*52
1516619202.61,17826,3.94,72316.5,-4.79,-42.25,-42.57,0,*55
1516619203.89,17827,3.94,72320.8,-4.81,-42.05,-42.45,0,*52
1516619205.15,17828,3.94,72316.8,-4.81,-42.45,-42.63,0,*5D
1516619206.36,17829,3.94,72316.3,-4.79,-42.37,-42.63,0,*5E
1516619207.59,17830,3.94,72320.8,-4.79,-42.45,-42.75,0,*54
1516619208.8,17831,3.94,72316.8,-4.79,-42.37,-42.75,0,*50
1516619210.06,17832,3.94,72320.0,-4.81,-42.25,-42.57,0,*57
1516619211.31,17833,3.94,72316.8,-4.81,-43.41,-43.81,0,*5F
1516619212.54,17834,3.94,72322.0,-4.79,-42.83,-43.01,0,*58
1516619213.78,17835,3.94,72320.3,-4.81,-43.01,-43.41,0,*51
1516619215.04,17836,3.94,72316.5,-4.81,-43.09,-43.49,0,*52
1516619216.24,17837,3.94,72318.5,-4.83,-43.87,-44.07,0,*5A
1516619217.5,17838,3.94,72322.5,-4.85,-43.95,-44.33,0,*57
1516619218.75,17839,3.94,72320.0,-4.85,-44.07,-44.33,0,*5A
1516619220.01,17840,3.94,72318.5,-4.85,-43.55,-44.07,0,*53
1516619221.26,17841,3.94,72320.0,-4.89,-44.41,-44.67,0,*5A
1516619222.51,17842,3.94,72316.8,-4.87,-44.13,-44.47,0,*52
1516619223.76,17843,3.94,72320.8,-4.89,-44.01,-44.41,0,*58
1516619225.04,17844,3.94,72318.5,-4.89,-44.47,-44.67,0,*59
1516619226.3,17845,3.94,72320.5,-4.93,-44.73,-45.13,0,*56
1516619227.56,17846,3.94,72318.0,-4.93,-44.01,-44.27,0,*56
1516619228.82,17847,3.94,72320.3,-4.93,-44.07,-44.33,0,*54
1516619230.07,17848,3.94,72320.3,-4.93,-43.87,-44.21,0,*57
1516619231.28,17849,3.94,72318.5,-4.95,-44.27,-44.53,0,*58
1516619232.54,17850,3.94,72316.8,-4.97,-44.41,-44.73,0,*50
1516619233.79,17851,3.94,72318.3,-4.97,-44.07,-44.33,0,*57
1516619235.03,17852,3.94,72318.0,-4.97,-44.41,-44.99,0,*56
1516619236.26,17853,3.94,72318.3,-5.03,-44.61,-44.99,0,*59
1516619237.54,17854,3.94,72316.8,-5.03,-45.07,-45.47,0,*5D
1516619238.76,17855,3.94,72318.5,-5.03,-44.41,-44.79,0,*53
1516619240.02,17856,3.94,72322.8,-5.03,-44.67,-44.99,0,*5A
1516619241.28,17857,3.94,72320.3,-5.07,-44.87,-45.27,0,*55
1516619242.53,17858,3.94,72318.8,-5.07,-44.41,-44.67,0,*55
1516619243.76,17859,3.94,72318.8,-5.07,-44.27,-44.41,0,*50
1516619245.02,17860,3.94,72318.3,-5.09,-44.47,-44.73,0,*53
1516619246.25,17861,3.94,72320.0,-5.11,-44.61,-44.87,0,*54
1516619247.51,17862,3.94,72316.5,-5.11,-44.67,-45.21,0,*5C
1516619248.75,17863,3.94,72318.3,-5.11,-44.79,-45.21,0,*52
1516619249.98,17864,3.94,72316.3,-5.11,-44.61,-44.99,0,*5E
1516619251.2,17865,3.94,72322.8,-5.13,-44.41,-44.67,0,*5E
1516619252.44,17866,3.94,72316.0,-5.13,-44.21,-44.61,0,*5D
1516619253.64,17867,3.94,72316.5,-5.17,-44.41,-44.61,0,*5E
1516619254.87,17868,3.94,72320.8,-5.17,-44.01,-44.07,0,*55
1516619256.1,17869,3.94,72316.0,-5.17,-43.81,-44.27,0,*59
1516619257.34,17870,3.94,72316.8,-5.19,-43.41,-43.49,0,*5C
1516619258.61,17871,3.94,72318.5,-5.19,-43.29,-43.41,0,*5B
1516619259.86,17872,3.94,72316.8,-5.19,-42.69,-42.89,0,*58
1516619261.09,17873,3.94,72316.0,-5.19,-42.63,-43.01,0,*52
1516619262.3,17874,3.94,72318.0,-5.13,-43.35,-43.61,0,*5B
1516619263.54,17875,3.94,72314.0,-5.13,-42.57,-42.75,0,*5B
1516619264.8,17876,3.94,72318.5,-5.13,-42.69,-42.95,0,*5B
1516619266.03,17877,3.94,72318.5,-5.13,-42.37,-42.69,0,*52
1516619267.29,17878,3.94,72318.5,-5.13,-42.57,-42.95,0,*58
1516619268.5,17879,3.94,72322.0,-5.13,-42.75,-42.89,0,*54
1516619269.73,17880,3.94,72320.3,-5.13,-42.37,-42.57,0,*57
1516619270.97,17881,3.94,72320.3,-5.13,-42.19,-42.51,0,*5C
1516619272.23,17882,3.94,72322.3,-5.11,-43.09,-43.15,0,*5C
1516619273.48,17883,3.94,72316.5,-5.11,-42.37,-42.57,0,*56
1516619274.71,17884,3.94,72320.5,-5.11,-43.75,-43.95,0,*59
1516619275.97,17885,3.94,72318.0,-5.11,-43.95,-44.21,0,*5E
1516619277.2,17886,3.94,72324.0,-5.09,-44.07,-44.47,0,*58
1516619278.48,17887,3.94,72322.3,-5.11,-43.81,-44.21,0,*59
1516619279.68,17888,3.94,72318.5,-5.13,-44.41,-44.61,0,*5B
1516619280.89,17889,3.94,72316.8,-5.17,-44.07,-44.41,0,*5E
1516619282.14,17890,3.94,72320.0,-5.17,-44.21,-44.47,0,*54
1516619283.37,17891,3.94,72318.0,-5.17,-43.81,-44.07,0,*5C
1516619284.6,17892,3.94,72322.5,-5.17,-43.81,-44.07,0,*5F
1516619285.86,17893,3.94,72318.3,-5.17,-43.67,-44.01,0,*50
1516619287.12,17894,3.94,72322.5,-5.19,-43.41,-43.67,0,*5A
1516619288.4,17895,3.94,72320.8,-5.19,-43.29,-43.55,0,*54
1516619289.67,17896,3.94,72322.8,-5.19,-43.67,-43.95,0,*51
1516619290.9,17897,3.94,72316.3,-5.21,-43.29,-43.49,0,*50
1516619292.14,17898,3.94,72320.8,-5.21,-43.21,-43.49,0,*57
1516619293.42,17899,3.94,72320.3,-5.19,-43.21,-43.29,0,*5B
1516619294.68,17900,3.94,72320.0,-5.19,-43.21,-43.41,0,*54
1516619295.9,17901,3.94,72324.0,-5.17,-43.81,-44.07,0,*54
1516619297.16,17902,3.94,72320.0,-5.21,-44.13,-44.47,0,*5A
1516619298.4,17903,3.94,72320.8,-5.19,-43.75,-43.95,0,*5F
1516619299.63,17904,3.94,72318.0,-5.21,-43.55,-43.87,0,*52
1516619300.88,17905,3.94,72322.3,-5.19,-43.21,-43.49,0,*59
1516619302.12,17906,3.94,72320.5,-5.21,-43.29,-43.49,0,*59
1516619303.36,17907,3.94,72320.8,-5.21,-42.89,-43.09,0,*57
1516619304.57,17908,3.94,72320.0,-5.21,-42.13,-42.13,0,*51
1516619305.81,17909,3.94,72316.8,-5.21,-42.31,-42.51,0,*56